Year,Month,Day,Hour,Minute,Value (Times are PST for temperature in C)
2019,03,23,00,00,10.90
2019,03,23,00,01,10.90
2019,03,23,00,02,11.00
2019,03,23,00,03,11.00
2019,03,23,00,04,11.00
2019,03,23,00,05,11.00
2019,03,23,00,06,11.00
2019,03,23,00,07,10.90
2019,03,23,00,08,10.90
2019,03,23,00,09,11.00
2019,03,23,00,10,11.00
2019,03,23,00,11,11.10
2019,03,23,00,12,11.10
2019,03,23,00,13,11.20
2019,03,23,00,14,11.20
2019,03,23,00,15,11.20
2019,03,23,00,16,11.20
2019,03,23,00,17,11.20
2019,03,23,00,18,11.20
2019,03,23,00,19,11.20
2019,03,23,00,20,11.20
2019,03,23,00,21,11.10
2019,03,23,00,22,11.10
2019,03,23,00,23,11.10
2019,03,23,00,24,11.10
2019,03,23,00,25,11.10
2019,03,23,00,26,11.10
2019,03,23,00,27,11.10
2019,03,23,00,28,11.10
2019,03,23,00,29,11.10
2019,03,23,00,30,11.10
2019,03,23,00,31,11.10
2019,03,23,00,32,11.10
2019,03,23,00,33,11.10
2019,03,23,00,34,11.10
2019,03,23,00,35,11.10
2019,03,23,00,36,11.10
2019,03,23,00,37,11.10
2019,03,23,00,38,11.10
2019,03,23,00,39,11.10
2019,03,23,00,40,11.10
2019,03,23,00,41,11.10
2019,03,23,00,42,11.10
2019,03,23,00,43,11.00
2019,03,23,00,44,11.00
2019,03,23,00,45,11.00
2019,03,23,00,46,11.00
2019,03,23,00,47,11.00
2019,03,23,00,48,11.10
2019,03,23,00,49,11.10
2019,03,23,00,50,11.10
2019,03,23,00,51,11.10
2019,03,23,00,52,11.10
2019,03,23,00,53,11.10
2019,03,23,00,54,11.10
2019,03,23,00,55,11.10
2019,03,23,00,56,11.10
2019,03,23,00,57,11.10
2019,03,23,00,58,11.10
2019,03,23,00,59,11.10
2019,03,23,01,00,11.00
2019,03,23,01,01,11.00
2019,03,23,01,02,11.00
2019,03,23,01,03,11.00
2019,03,23,01,04,11.00
2019,03,23,01,05,10.90
2019,03,23,01,06,10.90
2019,03,23,01,07,10.90
2019,03,23,01,08,10.90
2019,03,23,01,09,10.90
2019,03,23,01,10,10.90
2019,03,23,01,11,10.90
2019,03,23,01,12,10.90
2019,03,23,01,13,10.90
2019,03,23,01,14,10.90
2019,03,23,01,15,10.90
2019,03,23,01,16,10.90
2019,03,23,01,17,10.90
2019,03,23,01,18,10.90
2019,03,23,01,19,10.90
2019,03,23,01,20,10.80
2019,03,23,01,21,10.80
2019,03,23,01,22,10.80
2019,03,23,01,23,10.70
2019,03,23,01,24,10.70
2019,03,23,01,25,10.70
2019,03,23,01,26,10.70
2019,03,23,01,27,10.70
2019,03,23,01,28,10.60
2019,03,23,01,29,10.60
2019,03,23,01,30,10.60
2019,03,23,01,31,10.50
2019,03,23,01,32,10.50
2019,03,23,01,33,10.50
2019,03,23,01,34,10.40
2019,03,23,01,35,10.40
2019,03,23,01,36,10.40
2019,03,23,01,37,10.30
2019,03,23,01,38,10.30
2019,03,23,01,39,10.30
2019,03,23,01,40,10.30
2019,03,23,01,41,10.20
2019,03,23,01,42,10.20
2019,03,23,01,43,10.20
2019,03,23,01,44,10.20
2019,03,23,01,45,10.20
2019,03,23,01,46,10.10
2019,03,23,01,47,10.10
2019,03,23,01,48,10.10
2019,03,23,01,49,10.10
2019,03,23,01,50,10.10
2019,03,23,01,51,10.10
2019,03,23,01,52,10.10
2019,03,23,01,53,10.10
2019,03,23,01,54,10.00
2019,03,23,01,55,10.00
2019,03,23,01,56,10.00
2019,03,23,01,57,10.00
2019,03,23,01,58,9.90
2019,03,23,01,59,9.90
2019,03,23,02,00,9.90
2019,03,23,02,01,9.90
2019,03,23,02,02,9.90
2019,03,23,02,03,9.80
2019,03,23,02,04,9.80
2019,03,23,02,05,9.80
2019,03,23,02,06,9.80
2019,03,23,02,07,9.80
2019,03,23,02,08,9.70
2019,03,23,02,09,9.70
2019,03,23,02,10,9.70
2019,03,23,02,11,9.70
2019,03,23,02,12,9.70
2019,03,23,02,13,9.80
2019,03,23,02,14,9.80
2019,03,23,02,15,9.80
2019,03,23,02,16,9.80
2019,03,23,02,17,9.80
2019,03,23,02,18,9.80
2019,03,23,02,19,9.80
2019,03,23,02,20,9.80
2019,03,23,02,21,9.80
2019,03,23,02,22,9.80
2019,03,23,02,23,9.80
2019,03,23,02,24,9.80
2019,03,23,02,25,9.80
2019,03,23,02,26,9.80
2019,03,23,02,27,9.80
2019,03,23,02,28,9.80
2019,03,23,02,29,9.70
2019,03,23,02,30,9.70
2019,03,23,02,31,9.70
2019,03,23,02,32,9.70
2019,03,23,02,33,9.70
2019,03,23,02,34,9.70
2019,03,23,02,35,9.60
2019,03,23,02,36,9.60
2019,03,23,02,37,9.60
2019,03,23,02,38,9.60
2019,03,23,02,39,9.60
2019,03,23,02,40,9.60
2019,03,23,02,41,9.50
2019,03,23,02,42,9.50
2019,03,23,02,43,9.50
2019,03,23,02,44,9.50
2019,03,23,02,45,9.50
2019,03,23,02,46,9.50
2019,03,23,02,47,9.50
2019,03,23,02,48,9.40
2019,03,23,02,49,9.40
2019,03,23,02,50,9.40
2019,03,23,02,51,9.40
2019,03,23,02,52,9.40
2019,03,23,02,53,9.40
2019,03,23,02,54,9.40
2019,03,23,02,55,9.40
2019,03,23,02,56,9.40
2019,03,23,02,57,9.40
2019,03,23,02,58,9.40
2019,03,23,02,59,9.40
2019,03,23,03,00,9.40
2019,03,23,03,01,9.40
2019,03,23,03,02,9.40
2019,03,23,03,03,9.40
2019,03,23,03,04,9.40
2019,03,23,03,05,9.40
2019,03,23,03,06,9.40
2019,03,23,03,07,9.40
2019,03,23,03,08,9.30
2019,03,23,03,09,9.30
2019,03,23,03,10,9.20
2019,03,23,03,11,9.20
2019,03,23,03,12,9.20
2019,03,23,03,13,9.10
2019,03,23,03,14,9.10
2019,03,23,03,15,9.10
2019,03,23,03,16,9.10
2019,03,23,03,17,9.00
2019,03,23,03,18,9.00
2019,03,23,03,19,9.00
2019,03,23,03,20,8.90
2019,03,23,03,21,8.90
2019,03,23,03,22,8.90
2019,03,23,03,23,8.90
2019,03,23,03,24,8.90
2019,03,23,03,25,8.80
2019,03,23,03,26,8.80
2019,03,23,03,27,8.80
2019,03,23,03,28,8.70
2019,03,23,03,29,8.70
2019,03,23,03,30,8.70
2019,03,23,03,31,8.60
2019,03,23,03,32,8.60
2019,03,23,03,33,8.60
2019,03,23,03,34,8.60
2019,03,23,03,35,8.60
2019,03,23,03,36,8.60
2019,03,23,03,37,8.60
2019,03,23,03,38,8.70
2019,03,23,03,39,8.70
2019,03,23,03,40,8.70
2019,03,23,03,41,8.70
2019,03,23,03,42,8.70
2019,03,23,03,43,8.70
2019,03,23,03,44,8.70
2019,03,23,03,45,8.70
2019,03,23,03,46,8.70
2019,03,23,03,47,8.70
2019,03,23,03,48,8.70
2019,03,23,03,49,8.70
2019,03,23,03,50,8.70
2019,03,23,03,51,8.70
2019,03,23,03,52,8.60
2019,03,23,03,53,8.60
2019,03,23,03,54,8.60
2019,03,23,03,55,8.50
2019,03,23,03,56,8.50
2019,03,23,03,57,8.40
2019,03,23,03,58,8.40
2019,03,23,03,59,8.30
2019,03,23,04,00,8.20
2019,03,23,04,01,8.20
2019,03,23,04,02,8.10
2019,03,23,04,03,8.10
2019,03,23,04,04,8.00
2019,03,23,04,05,8.00
2019,03,23,04,06,7.90
2019,03,23,04,07,7.80
2019,03,23,04,08,7.70
2019,03,23,04,09,7.60
2019,03,23,04,10,7.50
2019,03,23,04,11,7.50
2019,03,23,04,12,7.40
2019,03,23,04,13,7.30
2019,03,23,04,14,7.30
2019,03,23,04,15,7.30
2019,03,23,04,16,7.20
2019,03,23,04,17,7.20
2019,03,23,04,18,7.20
2019,03,23,04,19,7.20
2019,03,23,04,20,7.10
2019,03,23,04,21,7.10
2019,03,23,04,22,7.10
2019,03,23,04,23,7.10
2019,03,23,04,24,7.00
2019,03,23,04,25,7.00
2019,03,23,04,26,7.00
2019,03,23,04,27,6.90
2019,03,23,04,28,6.90
2019,03,23,04,29,6.90
2019,03,23,04,30,6.80
2019,03,23,04,31,6.80
2019,03,23,04,32,6.80
2019,03,23,04,33,6.80
2019,03,23,04,34,6.70
2019,03,23,04,35,6.60
2019,03,23,04,36,6.60
2019,03,23,04,37,6.50
2019,03,23,04,38,6.50
2019,03,23,04,39,6.40
2019,03,23,04,40,6.40
2019,03,23,04,41,6.40
2019,03,23,04,42,6.30
2019,03,23,04,43,6.30
2019,03,23,04,44,6.30
2019,03,23,04,45,6.30
2019,03,23,04,46,6.30
2019,03,23,04,47,6.30
2019,03,23,04,48,6.20
2019,03,23,04,49,6.20
2019,03,23,04,50,6.20
2019,03,23,04,51,6.20
2019,03,23,04,52,6.10
2019,03,23,04,53,6.10
2019,03,23,04,54,6.10
2019,03,23,04,55,6.00
2019,03,23,04,56,5.90
2019,03,23,04,57,5.90
2019,03,23,04,58,5.80
2019,03,23,04,59,5.80
2019,03,23,05,00,5.70
2019,03,23,05,01,5.70
2019,03,23,05,02,5.70
2019,03,23,05,03,5.60
2019,03,23,05,04,5.60
2019,03,23,05,05,5.60
2019,03,23,05,06,5.60
2019,03,23,05,07,5.60
2019,03,23,05,08,5.50
2019,03,23,05,09,5.50
2019,03,23,05,10,5.50
2019,03,23,05,11,5.60
2019,03,23,05,12,5.60
2019,03,23,05,13,5.60
2019,03,23,05,14,5.50
2019,03,23,05,15,5.50
2019,03,23,05,16,5.50
2019,03,23,05,17,5.50
2019,03,23,05,18,5.50
2019,03,23,05,19,5.40
2019,03,23,05,20,5.40
2019,03,23,05,21,5.40
2019,03,23,05,22,5.40
2019,03,23,05,23,5.40
2019,03,23,05,24,5.40
2019,03,23,05,25,5.30
2019,03,23,05,26,5.30
2019,03,23,05,27,5.30
2019,03,23,05,28,5.30
2019,03,23,05,29,5.30
2019,03,23,05,30,5.30
2019,03,23,05,31,5.30
2019,03,23,05,32,5.30
2019,03,23,05,33,5.30
2019,03,23,05,34,5.30
2019,03,23,05,35,5.30
2019,03,23,05,36,5.30
2019,03,23,05,37,5.30
2019,03,23,05,38,5.20
2019,03,23,05,39,5.20
2019,03,23,05,40,5.20
2019,03,23,05,41,5.20
2019,03,23,05,42,5.20
2019,03,23,05,43,5.20
2019,03,23,05,44,5.20
2019,03,23,05,45,5.20
2019,03,23,05,46,5.20
2019,03,23,05,47,5.20
2019,03,23,05,48,5.20
2019,03,23,05,49,5.20
2019,03,23,05,50,5.20
2019,03,23,05,51,5.20
2019,03,23,05,52,5.10
2019,03,23,05,53,5.10
2019,03,23,05,54,5.10
2019,03,23,05,55,5.10
2019,03,23,05,56,5.10
2019,03,23,05,57,5.10
2019,03,23,05,58,5.10
2019,03,23,05,59,5.10
2019,03,23,06,00,5.10
2019,03,23,06,01,5.10
2019,03,23,06,02,5.10
2019,03,23,06,03,5.10
2019,03,23,06,04,5.10
2019,03,23,06,05,5.10
2019,03,23,06,06,5.10
2019,03,23,06,07,5.10
2019,03,23,06,08,5.10
2019,03,23,06,09,5.20
2019,03,23,06,10,5.20
2019,03,23,06,11,5.10
2019,03,23,06,12,5.10
2019,03,23,06,13,5.20
2019,03,23,06,14,5.20
2019,03,23,06,15,5.20
2019,03,23,06,16,5.20
2019,03,23,06,17,5.20
2019,03,23,06,18,5.20
2019,03,23,06,19,5.30
2019,03,23,06,20,5.30
2019,03,23,06,21,5.30
2019,03,23,06,22,5.30
2019,03,23,06,23,5.30
2019,03,23,06,24,5.30
2019,03,23,06,25,5.30
2019,03,23,06,26,5.30
2019,03,23,06,27,5.30
2019,03,23,06,28,5.30
2019,03,23,06,29,5.30
2019,03,23,06,30,5.30
2019,03,23,06,31,5.40
2019,03,23,06,32,5.40
2019,03,23,06,33,5.40
2019,03,23,06,34,5.40
2019,03,23,06,35,5.40
2019,03,23,06,36,5.50
2019,03,23,06,37,5.50
2019,03,23,06,38,5.50
2019,03,23,06,39,5.60
2019,03,23,06,40,5.60
2019,03,23,06,41,5.60
2019,03,23,06,42,5.60
2019,03,23,06,43,5.70
2019,03,23,06,44,5.70
2019,03,23,06,45,5.70
2019,03,23,06,46,5.70
2019,03,23,06,47,5.80
2019,03,23,06,48,5.80
2019,03,23,06,49,5.80
2019,03,23,06,50,5.90
2019,03,23,06,51,5.90
2019,03,23,06,52,5.90
2019,03,23,06,53,5.90
2019,03,23,06,54,5.90
2019,03,23,06,55,6.00
2019,03,23,06,56,6.00
2019,03,23,06,57,6.00
2019,03,23,06,58,6.00
2019,03,23,06,59,5.90
2019,03,23,07,00,5.90
2019,03,23,07,01,5.90
2019,03,23,07,02,5.90
2019,03,23,07,03,5.90
2019,03,23,07,04,5.90
2019,03,23,07,05,5.90
2019,03,23,07,06,5.90
2019,03,23,07,07,5.90
2019,03,23,07,08,5.90
2019,03,23,07,09,5.80
2019,03,23,07,10,5.80
2019,03,23,07,11,5.80
2019,03,23,07,12,5.80
2019,03,23,07,13,5.80
2019,03,23,07,14,5.80
2019,03,23,07,15,5.80
2019,03,23,07,16,5.80
2019,03,23,07,17,5.80
2019,03,23,07,18,5.80
2019,03,23,07,19,5.80
2019,03,23,09,00,8.40
2019,03,23,09,01,8.40
2019,03,23,09,02,8.50
2019,03,23,09,03,8.60
2019,03,23,09,04,8.60
2019,03,23,09,05,8.70
2019,03,23,09,06,8.70
2019,03,23,09,07,8.70
2019,03,23,09,08,8.70
2019,03,23,09,09,8.70
2019,03,23,09,10,8.70
2019,03,23,09,11,8.70
2019,03,23,09,12,8.60
2019,03,23,09,13,8.70
2019,03,23,09,14,8.70
2019,03,23,09,15,8.70
2019,03,23,09,16,8.70
2019,03,23,09,17,8.70
2019,03,23,09,18,8.70
2019,03,23,09,19,8.70
2019,03,23,09,20,8.70
2019,03,23,09,21,8.60
2019,03,23,09,22,8.50
2019,03,23,09,23,8.50
2019,03,23,09,24,8.50
2019,03,23,09,25,8.50
2019,03,23,09,26,8.60
2019,03,23,09,27,8.60
2019,03,23,09,28,8.60
2019,03,23,09,29,8.70
2019,03,23,09,30,8.70
2019,03,23,09,31,8.70
2019,03,23,09,32,8.70
2019,03,23,09,33,8.80
2019,03,23,09,34,8.80
2019,03,23,09,35,8.80
2019,03,23,09,36,8.90
2019,03,23,09,37,9.00
2019,03,23,09,38,9.10
2019,03,23,09,39,9.20
2019,03,23,09,40,9.30
2019,03,23,09,41,9.40
2019,03,23,09,42,9.40
2019,03,23,09,43,9.40
2019,03,23,09,44,9.50
2019,03,23,09,45,9.50
2019,03,23,09,46,9.60
2019,03,23,09,47,9.60
2019,03,23,09,48,9.60
2019,03,23,09,49,9.70
2019,03,23,09,50,9.70
2019,03,23,09,51,9.60
2019,03,23,09,52,9.60
2019,03,23,09,53,9.60
2019,03,23,09,54,9.60
2019,03,23,09,55,9.50
2019,03,23,09,56,9.50
2019,03,23,09,57,9.60
2019,03,23,09,58,9.60
2019,03,23,09,59,9.60
2019,03,23,10,00,9.70
2019,03,23,10,01,9.70
2019,03,23,10,02,9.80
2019,03,23,10,03,9.80
2019,03,23,10,04,9.80
2019,03,23,10,05,9.80
2019,03,23,10,06,9.80
2019,03,23,10,07,9.90
2019,03,23,10,08,9.90
2019,03,23,10,09,10.00
2019,03,23,10,10,10.00
2019,03,23,10,11,10.00
2019,03,23,10,12,10.00
2019,03,23,10,13,10.10
2019,03,23,10,14,10.20
2019,03,23,10,15,10.20
2019,03,23,10,16,10.30
2019,03,23,10,17,10.40
2019,03,23,10,18,10.50
2019,03,23,10,19,10.60
2019,03,23,10,20,10.60
2019,03,23,10,21,10.60
2019,03,23,10,22,10.70
2019,03,23,10,23,10.70
2019,03,23,10,24,10.70
2019,03,23,10,25,10.80
2019,03,23,10,26,10.90
2019,03,23,10,27,11.00
2019,03,23,10,28,11.10
2019,03,23,10,29,11.10
2019,03,23,10,30,11.20
2019,03,23,10,31,11.30
2019,03,23,10,32,11.40
2019,03,23,10,33,11.40
2019,03,23,10,34,11.50
2019,03,23,10,35,11.50
2019,03,23,10,36,11.60
2019,03,23,10,37,11.60
2019,03,23,10,38,11.70
2019,03,23,10,39,11.70
2019,03,23,10,40,11.80
2019,03,23,10,41,11.90
2019,03,23,10,42,11.90
2019,03,23,10,43,11.90
2019,03,23,10,44,11.90
2019,03,23,10,45,11.90
2019,03,23,10,46,11.90
2019,03,23,10,47,11.90
2019,03,23,10,48,11.90
2019,03,23,10,49,11.90
2019,03,23,10,50,11.80
2019,03,23,10,51,11.70
2019,03,23,10,52,11.60
2019,03,23,10,53,11.60
2019,03,23,10,54,11.60
2019,03,23,10,55,11.60
2019,03,23,10,56,11.60
2019,03,23,10,57,11.70
2019,03,23,10,58,11.70
2019,03,23,10,59,11.70
2019,03,23,11,00,11.70
2019,03,23,11,01,11.70
2019,03,23,11,02,11.70
2019,03,23,11,03,11.70
2019,03,23,11,04,11.60
2019,03,23,11,05,11.60
2019,03,23,11,06,11.60
2019,03,23,11,07,11.70
2019,03,23,11,08,11.70
2019,03,23,11,09,11.70
2019,03,23,11,10,11.80
2019,03,23,11,11,11.80
2019,03,23,11,12,11.80
2019,03,23,11,13,11.90
2019,03,23,11,14,11.90
2019,03,23,11,15,12.00
2019,03,23,11,16,12.00
2019,03,23,11,17,12.10
2019,03,23,11,18,12.10
2019,03,23,11,19,12.10
2019,03,23,11,20,12.00
2019,03,23,11,21,12.10
2019,03,23,11,22,12.20
2019,03,23,11,23,12.30
2019,03,23,11,24,12.30
2019,03,23,11,25,12.30
2019,03,23,11,26,12.30
2019,03,23,11,27,12.20
2019,03,23,11,28,12.10
2019,03,23,11,29,12.10
2019,03,23,11,30,12.00
2019,03,23,11,31,11.90
2019,03,23,11,32,12.00
2019,03,23,11,33,12.00
2019,03,23,11,34,12.10
2019,03,23,11,35,12.20
2019,03,23,11,36,12.20
2019,03,23,11,37,12.30
2019,03,23,11,38,12.30
2019,03,23,11,39,12.40
2019,03,23,11,40,12.40
2019,03,23,11,41,12.40
2019,03,23,11,42,12.40
2019,03,23,11,43,12.50
2019,03,23,11,44,12.50
2019,03,23,11,45,12.60
2019,03,23,11,46,12.60
2019,03,23,11,47,12.60
2019,03,23,11,48,12.70
2019,03,23,11,49,12.80
2019,03,23,11,50,12.90
2019,03,23,11,51,12.90
2019,03,23,11,52,13.00
2019,03,23,11,53,13.00
2019,03,23,11,54,13.00
2019,03,23,11,55,13.00
2019,03,23,11,56,13.10
2019,03,23,11,57,13.10
2019,03,23,11,58,13.10
2019,03,23,11,59,13.20
2019,03,23,12,00,13.20
2019,03,23,12,01,13.20
2019,03,23,12,02,13.10
2019,03,23,12,03,13.10
2019,03,23,12,04,13.00
2019,03,23,12,05,13.00
2019,03,23,12,06,13.00
2019,03,23,12,07,12.90
2019,03,23,12,08,12.80
2019,03,23,12,09,12.80
2019,03,23,12,10,12.70
2019,03,23,12,11,12.60
2019,03,23,12,12,12.50
2019,03,23,12,13,12.50
2019,03,23,12,14,12.40
2019,03,23,12,15,12.40
2019,03,23,12,16,12.40
2019,03,23,12,17,12.50
2019,03,23,12,18,12.60
2019,03,23,12,19,12.70
2019,03,23,12,20,12.80
2019,03,23,12,21,12.90
2019,03,23,12,22,12.90
2019,03,23,12,23,12.80
2019,03,23,12,24,12.80
2019,03,23,12,25,12.90
2019,03,23,12,26,13.00
2019,03,23,12,27,13.10
2019,03,23,12,28,13.30
2019,03,23,12,29,13.40
2019,03,23,12,30,13.50
2019,03,23,12,31,13.50
2019,03,23,12,32,13.40
2019,03,23,12,33,13.30
2019,03,23,12,34,13.30
2019,03,23,12,35,13.30
2019,03,23,12,36,13.30
2019,03,23,12,37,13.30
2019,03,23,12,38,13.30
2019,03,23,12,39,13.50
2019,03,23,12,40,13.60
2019,03,23,12,41,13.60
2019,03,23,12,42,13.60
2019,03,23,12,43,13.60
2019,03,23,12,44,13.70
2019,03,23,12,45,13.70
2019,03,23,12,46,13.60
2019,03,23,12,47,13.50
2019,03,23,12,48,13.40
2019,03,23,12,49,13.40
2019,03,23,12,50,13.30
2019,03,23,12,51,13.30
2019,03,23,12,52,13.10
2019,03,23,12,53,13.00
2019,03,23,12,54,12.90
2019,03,23,12,55,12.80
2019,03,23,12,56,12.80
2019,03,23,12,57,12.80
2019,03,23,12,58,12.80
2019,03,23,12,59,12.80
2019,03,23,13,00,12.80
2019,03,23,13,01,12.70
2019,03,23,13,02,12.70
2019,03,23,13,03,12.70
2019,03,23,13,04,12.70
2019,03,23,13,05,12.70
2019,03,23,13,06,12.60
2019,03,23,13,07,12.60
2019,03,23,13,08,12.60
2019,03,23,13,09,12.50
2019,03,23,13,10,12.50
2019,03,23,13,11,12.40
2019,03,23,13,12,12.40
2019,03,23,13,13,12.40
2019,03,23,13,14,12.40
2019,03,23,13,15,12.50
2019,03,23,13,16,12.50
2019,03,23,13,17,12.50
2019,03,23,13,18,12.50
2019,03,23,13,19,12.50
2019,03,23,13,20,12.50
2019,03,23,13,21,12.60
2019,03,23,13,22,12.60
2019,03,23,13,23,12.60
2019,03,23,13,24,12.70
2019,03,23,13,25,12.80
2019,03,23,13,26,12.90
2019,03,23,13,27,13.00
2019,03,23,13,28,13.10
2019,03,23,13,29,13.20
2019,03,23,13,30,13.20
2019,03,23,13,31,13.20
2019,03,23,13,32,13.20
2019,03,23,13,33,13.20
2019,03,23,13,34,13.20
2019,03,23,13,35,13.10
2019,03,23,13,36,13.10
2019,03,23,13,37,13.10
2019,03,23,13,38,13.00
2019,03,23,13,39,13.00
2019,03,23,13,40,13.00
2019,03,23,13,41,13.00
2019,03,23,13,42,12.90
2019,03,23,13,43,12.90
2019,03,23,13,44,12.90
2019,03,23,13,45,12.90
2019,03,23,13,46,12.90
2019,03,23,13,47,12.90
2019,03,23,13,48,12.80
2019,03,23,13,49,12.80
2019,03,23,13,50,12.80
2019,03,23,13,51,12.80
2019,03,23,13,52,12.80
2019,03,23,13,53,12.80
2019,03,23,13,54,12.80
2019,03,23,13,55,12.80
2019,03,23,13,56,12.70
2019,03,23,13,57,12.70
2019,03,23,13,58,12.70
2019,03,23,13,59,12.70
2019,03,23,14,00,12.70
2019,03,23,14,01,12.70
2019,03,23,14,02,12.70
2019,03,23,14,03,12.60
2019,03,23,14,04,12.60
2019,03,23,14,05,12.60
2019,03,23,14,06,12.60
2019,03,23,14,07,12.50
2019,03,23,14,08,12.50
2019,03,23,14,09,12.50
2019,03,23,14,10,12.60
2019,03,23,14,11,12.60
2019,03,23,14,12,12.70
2019,03,23,14,13,12.70
2019,03,23,14,14,12.80
2019,03,23,14,15,12.80
2019,03,23,14,16,12.80
2019,03,23,14,17,12.80
2019,03,23,14,18,12.80
2019,03,23,14,19,12.90
2019,03,23,14,20,12.90
2019,03,23,14,21,13.00
2019,03,23,14,22,13.00
2019,03,23,14,23,13.00
2019,03,23,14,24,13.10
2019,03,23,14,25,13.10
2019,03,23,14,26,13.10
2019,03,23,14,27,13.00
2019,03,23,14,28,13.00
2019,03,23,14,29,13.00
2019,03,23,14,30,12.90
2019,03,23,14,31,12.80
2019,03,23,14,32,12.80
2019,03,23,14,33,12.70
2019,03,23,14,34,12.70
2019,03,23,14,35,12.70
2019,03,23,14,36,12.70
2019,03,23,14,37,12.70
2019,03,23,14,38,12.70
2019,03,23,14,39,12.70
2019,03,23,14,40,12.70
2019,03,23,14,41,12.70
2019,03,23,14,42,12.70
2019,03,23,14,43,12.70
2019,03,23,14,44,12.70
2019,03,23,14,45,12.80
2019,03,23,14,46,12.80
2019,03,23,14,47,12.80
2019,03,23,14,48,12.80
2019,03,23,14,49,12.80
2019,03,23,14,50,12.80
2019,03,23,14,51,12.80
2019,03,23,14,52,12.80
2019,03,23,14,53,12.80
2019,03,23,14,54,12.80
2019,03,23,14,55,12.80
2019,03,23,14,56,12.80
2019,03,23,14,57,12.80
2019,03,23,14,58,12.80
2019,03,23,14,59,12.80
2019,03,23,15,00,12.80
2019,03,23,15,01,12.80
2019,03,23,15,02,12.80
2019,03,23,15,03,12.90
2019,03,23,15,04,12.90
2019,03,23,15,05,13.00
2019,03,23,15,06,13.00
2019,03,23,15,07,13.10
2019,03,23,15,08,13.10
2019,03,23,15,09,13.20
2019,03,23,15,10,13.20
2019,03,23,15,11,13.20
2019,03,23,15,12,13.30
2019,03,23,15,13,13.30
2019,03,23,15,14,13.30
2019,03,23,15,15,13.30
2019,03,23,15,16,13.30
2019,03,23,15,17,13.30
2019,03,23,15,18,13.30
2019,03,23,15,19,13.30
2019,03,23,15,20,13.30
2019,03,23,15,21,13.30
2019,03,23,15,22,13.30
2019,03,23,15,23,13.30
2019,03,23,15,24,13.30
2019,03,23,15,25,13.30
2019,03,23,15,26,13.20
2019,03,23,15,27,13.20
2019,03,23,15,28,13.20
2019,03,23,15,29,13.10
2019,03,23,15,30,13.10
2019,03,23,15,31,13.10
2019,03,23,15,32,13.10
2019,03,23,15,33,13.10
2019,03,23,15,34,13.00
2019,03,23,15,35,13.10
2019,03,23,15,36,13.10
2019,03,23,15,37,13.10
2019,03,23,15,38,13.10
2019,03,23,15,39,13.10
2019,03,23,15,40,13.10
2019,03,23,15,41,13.10
2019,03,23,15,42,13.20
2019,03,23,15,43,13.20
2019,03,23,15,44,13.20
2019,03,23,15,45,13.20
2019,03,23,15,46,13.20
2019,03,23,15,47,13.20
2019,03,23,15,48,13.20
2019,03,23,15,49,13.30
2019,03,23,15,50,13.30
2019,03,23,15,51,13.30
2019,03,23,15,52,13.30
2019,03,23,15,53,13.30
2019,03,23,15,54,13.40
2019,03,23,15,55,13.40
2019,03,23,15,56,13.50
2019,03,23,15,57,13.50
2019,03,23,15,58,13.60
2019,03,23,15,59,13.60
2019,03,23,16,00,13.70
2019,03,23,16,01,13.80
2019,03,23,16,02,13.90
2019,03,23,16,03,14.00
2019,03,23,16,04,14.00
2019,03,23,16,05,14.00
2019,03,23,16,06,13.90
2019,03,23,16,07,13.80
2019,03,23,16,08,13.60
2019,03,23,16,09,13.60
2019,03,23,16,10,13.60
2019,03,23,16,11,13.60
2019,03,23,16,12,13.60
2019,03,23,16,13,13.60
2019,03,23,16,14,13.60
2019,03,23,16,15,13.60
2019,03,23,16,16,13.60
2019,03,23,16,17,13.70
2019,03,23,16,18,13.70
2019,03,23,16,19,13.70
2019,03,23,16,20,13.70
2019,03,23,16,21,13.70
2019,03,23,16,22,13.70
2019,03,23,16,23,13.60
2019,03,23,16,24,13.50
2019,03,23,16,25,13.40
2019,03,23,16,26,13.40
2019,03,23,16,27,13.30
2019,03,23,16,28,13.30
2019,03,23,16,29,13.30
2019,03,23,16,30,13.20
2019,03,23,16,31,13.20
2019,03,23,16,32,13.20
2019,03,23,16,33,13.10
2019,03,23,16,34,13.10
2019,03,23,16,35,13.10
2019,03,23,16,36,13.10
2019,03,23,16,37,13.10
2019,03,23,16,38,13.10
2019,03,23,16,39,13.20
2019,03,23,16,40,13.20
2019,03,23,16,41,13.20
2019,03,23,16,42,13.20
2019,03,23,16,43,13.20
2019,03,23,16,44,13.20
2019,03,23,16,45,13.30
2019,03,23,16,46,13.30
2019,03,23,16,47,13.30
2019,03,23,16,48,13.30
2019,03,23,16,49,13.40
2019,03,23,16,50,13.40
2019,03,23,16,51,13.50
2019,03,23,16,52,13.60
2019,03,23,16,53,13.60
2019,03,23,16,54,13.60
2019,03,23,16,55,13.70
2019,03,23,16,56,13.70
2019,03,23,16,57,13.70
2019,03,23,16,58,13.70
2019,03,23,16,59,13.80
2019,03,23,17,00,13.80
2019,03,23,17,01,13.80
2019,03,23,17,02,13.80
2019,03,23,17,03,13.90
2019,03,23,17,04,13.90
2019,03,23,17,05,13.90
2019,03,23,17,06,13.90
2019,03,23,17,07,13.90
2019,03,23,17,08,14.00
2019,03,23,17,09,14.00
2019,03,23,17,10,13.90
2019,03,23,17,11,14.00
2019,03,23,17,12,14.00
2019,03,23,17,13,14.00
2019,03,23,17,14,14.00
2019,03,23,17,15,13.90
2019,03,23,17,16,14.00
2019,03,23,17,17,14.00
2019,03,23,17,18,14.00
2019,03,23,17,19,14.10
2019,03,23,17,20,14.10
2019,03,23,17,21,14.00
2019,03,23,17,22,13.90
2019,03,23,17,23,13.90
2019,03,23,17,24,13.80
2019,03,23,17,25,13.80
2019,03,23,17,26,13.70
2019,03,23,17,27,13.60
2019,03,23,17,28,13.60
2019,03,23,17,29,13.60
2019,03,23,17,30,13.60
2019,03,23,17,31,13.60
2019,03,23,17,32,13.60
2019,03,23,17,33,13.60
2019,03,23,17,34,13.60
2019,03,23,17,35,13.60
2019,03,23,17,36,13.60
2019,03,23,17,37,13.60
2019,03,23,17,38,13.60
2019,03,23,17,39,13.50
2019,03,23,17,40,13.50
2019,03,23,17,41,13.40
2019,03,23,17,42,13.40
2019,03,23,17,43,13.40
2019,03,23,17,44,13.30
2019,03,23,17,45,13.30
2019,03,23,17,46,13.30
2019,03,23,17,47,13.30
2019,03,23,17,48,13.30
2019,03,23,17,49,13.30
2019,03,23,17,50,13.30
2019,03,23,17,51,13.30
2019,03,23,17,52,13.30
2019,03,23,17,53,13.30
2019,03,23,17,54,13.30
2019,03,23,17,55,13.30
2019,03,23,17,56,13.30
2019,03,23,17,57,13.30
2019,03,23,17,58,13.30
2019,03,23,17,59,13.20
2019,03,23,18,00,13.20
2019,03,23,18,01,13.10
2019,03,23,18,02,13.10
2019,03,23,18,03,13.00
2019,03,23,18,04,13.00
2019,03,23,18,05,13.00
2019,03,23,18,06,12.90
2019,03,23,18,07,12.90
2019,03,23,18,08,12.90
2019,03,23,18,09,12.90
2019,03,23,18,10,12.90
2019,03,23,18,11,12.90
2019,03,23,18,12,12.90
2019,03,23,18,13,12.90
2019,03,23,18,14,12.80
2019,03,23,18,15,12.90
2019,03,23,18,16,12.90
2019,03,23,18,17,12.90
2019,03,23,18,18,12.90
2019,03,23,18,19,12.90
2019,03,23,18,20,12.90
2019,03,23,18,21,12.90
2019,03,23,18,22,12.90
2019,03,23,18,23,12.90
2019,03,23,18,24,12.90
2019,03,23,18,25,12.90
2019,03,23,18,26,12.90
2019,03,23,18,27,12.80
2019,03,23,18,28,12.80
2019,03,23,18,29,12.80
2019,03,23,18,30,12.80
2019,03,23,18,31,12.80
2019,03,23,18,32,12.80
2019,03,23,18,33,12.80
2019,03,23,18,34,12.80
2019,03,23,18,35,12.70
2019,03,23,18,36,12.70
2019,03,23,18,37,12.70
2019,03,23,18,38,12.60
2019,03,23,18,39,12.60
2019,03,23,18,40,12.60
2019,03,23,18,41,12.50
2019,03,23,18,42,12.50
2019,03,23,18,43,12.50
2019,03,23,18,44,12.40
2019,03,23,18,45,12.40
2019,03,23,18,46,12.40
2019,03,23,18,47,12.40
2019,03,23,18,48,12.40
2019,03,23,18,49,12.40
2019,03,23,18,50,12.30
2019,03,23,18,51,12.30
2019,03,23,18,52,12.30
2019,03,23,18,53,12.30
2019,03,23,18,54,12.20
2019,03,23,18,55,12.20
2019,03,23,18,56,12.20
2019,03,23,18,57,12.20
2019,03,23,18,58,12.10
2019,03,23,18,59,12.10
2019,03,23,19,00,12.10
2019,03,23,19,01,12.00
2019,03,23,19,02,12.00
2019,03,23,19,03,11.90
2019,03,23,19,04,11.90
2019,03,23,19,05,11.90
2019,03,23,19,06,11.80
2019,03,23,19,07,11.80
2019,03,23,19,08,11.80
2019,03,23,19,09,11.80
2019,03,23,19,10,11.80
2019,03,23,19,11,11.70
2019,03,23,19,12,11.70
2019,03,23,19,13,11.70
2019,03,23,19,14,11.60
2019,03,23,19,15,11.60
2019,03,23,19,16,11.60